Dewpoint
72 74 76 76 76 76 77 76 77 77 77 77 77 77 77 77 77 77 77 76 75 75 75 75 75 75 75 74 74 73 73 73 74 73 73 73 73 74 75 74 74 73 74
73 73 76 76 76 76 77 76 76 76 77 77 77 77 76 76 76 77 77 76 75 75 74 74 74 74 74 74 73 73 73 73 73 73 73 72 73 73 75 74 75 74 74
73 73 75 76 76 76 77 77 76 76 76 76 76 77 76 75 76 75 75 75 75 74 74 74 74 73 73 73 73 73 73 73 73 73 73 71 71 73 74 74 75 75 74
73 73 75 77 76 76 76 77 77 76 76 76 77 77 76 75 75 75 75 75 74 74 74 73 73 73 73 73 73 73 73 72 73 73 72 71 70 73 74 73 75 75 74
73 73 74 77 77 76 76 77 77 77 76 76 76 76 76 75 75 74 74 74 74 73 73 73 73 73 73 72 73 72 71 71 71 72 71 71 70 72 74 73 74 75 74
73 74 75 76 76 76 76 77 76 76 75 76 76 76 76 75 75 75 74 74 74 74 74 73 73 71 71 70 70 70 69 69 70 71 69 70 71 73 74 74 74 74 74
73 74 75 76 76 76 76 76 76 76 75 76 75 74 75 76 76 75 75 75 74 73 73 72 73 72 71 71 70 70 71 72 71 71 69 71 71 74 74 73 73 74 74
74 74 74 75 75 76 76 76 76 76 76 76 76 76 76 76 75 75 74 74 73 73 73 73 72 72 72 72 72 72 73 73 71 70 70 70 71 74 73 73 73 74 74
73 73 73 73 74 75 75 76 75 75 76 76 76 76 75 75 75 75 74 74 74 73 73 73 72 72 73 73 73 73 73 73 71 70 70 69 73 74 73 74 73 75 74
73 73 73 73 73 72 72 75 75 75 76 76 76 76 76 76 74 75 76 75 73 73 73 73 72 73 74 73 73 73 74 71 70 71 70 70 73 74 73 74 74 74 74
72 72 72 72 73 72 73 74 75 75 76 75 75 75 76 73 73 74 75 74 74 73 73 73 73 74 74 74 74 74 74 73 71 71 70 73 74 74 73 74 74 75 74
71 72 72 72 72 72 72 72 72 74 72 73 73 73 72 72 73 73 74 74 74 74 74 74 74 74 73 72 73 73 71 74 72 72 70 73 74 74 73 75 75 75 75
70 71 72 71 71 71 71 71 72 72 71 70 71 72 72 72 71 73 73 73 73 74 73 72 72 72 71 70 69 69 68 70 71 72 72 73 74 73 74 76 76 75 74
70 69 70 71 70 71 71 70 71 71 71 70 70 71 69 69 69 70 71 72 72 72 71 71 69 67 66 66 66 66 67 69 71 71 72 75 75 74 74 75 77 75 75
68 70 69 70 70 70 71 70 70 70 70 69 69 70 68 67 68 70 71 71 70 70 69 67 67 67 67 66 65 65 64 67 68 70 72 75 76 76 75 76 76 76 75
68 69 69 69 68 69 69 69 69 68 68 68 68 69 67 64 64 66 70 71 70 69 69 68 67 66 66 66 66 68 68 69 69 70 73 72 75 77 76 76 76 75 75
67 68 68 67 68 69 68 69 68 67 67 67 66 66 67 64 63 63 68 71 70 70 68 68 68 70 70 71 71 71 71 71 71 70 72 73 72 75 77 76 73 76 75
68 67 68 67 67 69 68 69 67 66 65 65 64 65 65 63 62 62 63 67 70 70 70 69 69 70 70 71 71 71 71 71 72 72 73 73 73 72 77 76 74 74 76
68 68 68 68 67 68 68 68 67 65 65 64 64 64 64 64 63 62 63 67 69 70 70 71 71 71 70 70 70 70 70 70 71 70 72 72 73 73 74 75 75 75 75
68 68 68 68 68 69 68 67 66 66 65 64 62 62 62 63 65 63 63 64 68 71 70 70 70 71 71 71 71 71 70 69 69 68 71 72 72 73 73 72 73 74 76
68 68 67 68 68 68 67 66 64 64 65 64 63 63 63 64 65 64 64 65 67 71 71 71 71 71 70 71 69 67 67 65 67 66 71 71 72 72 73 73 73 73 73
68 68 68 68 68 68 67 66 65 65 66 64 64 64 64 65 65 65 65 66 69 71 71 71 70 70 70 71 68 66 64 65 63 65 67 67 67 71 73 72 73 73 73
67 67 67 67 68 68 67 66 65 66 66 65 64 64 64 65 64 66 66 68 71 71 71 71 71 70 68 70 70 68 65 62 65 64 63 62 61 63 69 72 72 73 73
66 67 68 68 67 66 66 66 64 63 63 62 62 62 64 67 69 71 72 72 72 72 72 72 73 72 70 69 70 72 70 68 65 63 66 63 64 61 62 66 70 71 73
66 66 67 68 67 65 66 67 66 62 61 64 64 65 68 70 72 72 73 73 71 72 72 71 71 72 72 71 70 69 68 68 67 65 61 63 64 63 66 68 72 73 73
66 65 65 67 68 68 65 66 63 62 65 67 68 70 70 71 71 72 71 71 70 71 70 68 68 71 72 71 71 69 68 67 66 65 63 63 62 62 65 66 70 71 71
Lifted_Index
-2 -2 -3 -3 -3 -3 -3 -3 -3 -3 -3 -3 -3 -3 -3 -4 -4 -4 -4 -4 -3 -3 -3 -3 -3 -3 -3 -3 -3 -3 -3 -3 -3 -3 -3 -3 -3 -4 -4 -4 -4 -4 -4
-2 -2 -3 -3 -3 -3 -4 -3 -3 -3 -3 -3 -3 -3 -3 -3 -3 -4 -4 -3 -3 -3 -3 -3 -3 -3 -2 -2 -2 -2 -3 -3 -3 -3 -3 -3 -3 -3 -4 -4 -4 -4 -4
-2 -2 -3 -3 -3 -4 -4 -4 -3 -3 -3 -3 -3 -3 -3 -3 -3 -3 -3 -3 -3 -3 -3 -2 -2 -2 -2 -2 -2 -2 -2 -2 -3 -3 -3 -2 -2 -3 -3 -4 -4 -4 -4
-2 -2 -3 -3 -4 -4 -4 -4 -4 -4 -3 -3 -3 -3 -3 -3 -3 -3 -3 -3 -3 -2 -2 -2 -2 -2 -2 -2 -2 -2 -2 -2 -2 -2 -2 -2 -2 -3 -3 -4 -4 -4 -4
-2 -2 -3 -3 -4 -4 -4 -4 -4 -4 -4 -3 -3 -3 -3 -3 -3 -2 -2 -2 -2 -2 -2 -2 -2 -2 -2 -2 -2 -2 -1 -2 -2 -2 -2 -1 -2 -2 -3 -3 -4 -4 -4
-3 -3 -3 -3 -4 -4 -4 -4 -4 -4 -3 -3 -3 -3 -3 -3 -3 -3 -2 -2 -2 -2 -2 -2 -1 -1 -1 -1 -1 -1 -1 -1 -2 -2 -2 -1 -2 -2 -3 -3 -4 -4 -4
-3 -3 -3 -4 -4 -4 -4 -4 -4 -4 -3 -3 -3 -3 -3 -3 -3 -3 -2 -2 -2 -2 -2 -2 -1 -1 -1 -1 -1 -1 -1 -2 -2 -2 -2 -1 -2 -3 -3 -3 -3 -4 -4
-3 -3 -3 -3 -3 -4 -4 -4 -4 -4 -4 -4 -4 -4 -3 -3 -3 -2 -2 -2 -2 -2 -2 -2 -2 -2 -2 -2 -2 -2 -2 -2 -2 -2 -1 -2 -2 -3 -3 -3 -3 -4 -4
-3 -3 -3 -3 -3 -3 -3 -3 -4 -4 -4 -4 -4 -4 -4 -3 -3 -2 -2 -2 -2 -2 -2 -2 -2 -2 -2 -3 -3 -3 -3 -2 -2 -1 -1 -2 -2 -3 -3 -3 -4 -4 -4
-3 -3 -2 -2 -3 -2 -2 -3 -4 -4 -4 -4 -4 -4 -4 -3 -3 -3 -3 -2 -2 -2 -2 -2 -2 -2 -3 -3 -3 -3 -3 -2 -1 -1 -2 -2 -2 -3 -3 -3 -4 -4 -4
-2 -2 -2 -2 -2 -2 -2 -3 -3 -4 -4 -4 -4 -4 -4 -3 -3 -3 -3 -3 -3 -3 -2 -2 -2 -2 -2 -3 -3 -3 -3 -2 -2 -2 -2 -2 -3 -3 -3 -3 -4 -4 -4
-2 -2 -2 -2 -2 -2 -2 -2 -2 -3 -3 -4 -4 -4 -4 -3 -3 -3 -3 -3 -3 -3 -3 -2 -2 -2 -2 -2 -2 -2 -2 -2 -2 -2 -2 -2 -3 -3 -3 -3 -3 -4 -4
-3 -2 -2 -2 -2 -2 -1 -1 -1 -2 -2 -3 -3 -3 -3 -3 -2 -3 -3 -3 -3 -3 -2 -2 -1 -1 -1 -1 -1 -1 -1 -1 -2 -2 -2 -2 -2 -3 -3 -3 -4 -4 -4
-3 -3 -2 -2 -1 -1 -1 -1 -1 -1 -1 -2 -2 -2 -2 -2 -2 -2 -2 -2 -2 -2 -2 -1 -0 0 0 0 0 0 -0 -1 -1 -2 -2 -2 -2 -2 -3 -4 -4 -4 -4
-3 -3 -2 -2 -1 -1 -1 -1 -1 -0 -0 -1 -1 -2 -2 -1 -1 -2 -2 -1 -1 -1 -1 -0 0 1 1 0 0 -0 -0 -1 -1 -2 -2 -3 -3 -3 -3 -4 -4 -4 -4
-3 -3 -2 -2 -2 -1 -1 -1 -1 -1 -0 -0 -1 -1 -1 -1 -1 -1 -1 -1 -1 -1 -1 -0 -0 -0 -0 -0 -1 -1 -2 -2 -2 -2 -2 -3 -3 -3 -4 -4 -4 -4 -4
-2 -2 -2 -2 -2 -2 -1 -1 -1 -1 -0 0 -0 -1 -1 -1 -1 -1 -1 -1 -1 -1 -1 -1 -1 -1 -1 -1 -2 -2 -2 -3 -3 -3 -3 -3 -3 -4 -4 -4 -4 -4 -4
-2 -2 -2 -1 -1 -1 -0 -0 -0 0 1 1 0 -0 -1 -1 -1 -1 -1 -1 -1 -1 -2 -2 -2 -2 -2 -2 -2 -2 -2 -3 -3 -3 -3 -3 -3 -3 -4 -4 -4 -4 -4
-1 -1 -1 -1 -1 -0 0 1 1 1 1 1 1 -0 -0 -0 -0 -1 -1 -1 -1 -1 -2 -2 -2 -2 -2 -2 -2 -3 -3 -2 -2 -2 -3 -3 -3 -3 -4 -4 -3 -3 -4
-1 -1 -1 -0 -0 0 1 1 1 1 1 1 1 0 0 1 0 -0 -1 -1 -1 -2 -2 -3 -3 -3 -3 -3 -3 -3 -2 -2 -2 -2 -2 -3 -3 -3 -3 -3 -3 -3 -3
-2 -1 -1 -0 -0 -0 0 1 1 1 1 1 1 1 1 1 0 -0 -1 -1 -1 -2 -3 -3 -3 -3 -3 -3 -3 -2 -2 -1 -1 -2 -2 -2 -3 -3 -3 -3 -3 -3 -3
-2 -2 -1 -1 -1 -1 -0 1 1 1 1 1 1 1 1 1 0 -0 -1 -1 -2 -2 -3 -3 -3 -3 -3 -3 -3 -2 -2 -1 -1 -2 -2 -1 -1 -2 -2 -3 -3 -3 -3
-2 -2 -1 -1 -1 -1 -0 0 1 1 1 1 1 2 2 1 0 -1 -1 -2 -3 -3 -4 -4 -4 -4 -3 -3 -3 -3 -2 -2 -2 -2 -1 -1 -0 -1 -1 -2 -3 -3 -3
-2 -2 -2 -1 -1 -1 -1 -0 0 1 1 1 2 2 1 0 -1 -2 -3 -3 -4 -4 -4 -4 -4 -4 -4 -3 -3 -3 -3 -2 -2 -2 -1 -1 -0 -0 -1 -2 -2 -3 -3
-2 -2 -2 -2 -2 -2 -2 -1 -1 0 1 1 1 0 -0 -1 -2 -3 -4 -4 -4 -4 -3 -3 -3 -3 -4 -4 -3 -3 -3 -2 -2 -2 -1 -1 -1 -0 -1 -1 -2 -3 -3
-2 -2 -2 -2 -3 -2 -2 -2 -1 -0 0 1 0 -1 -2 -2 -3 -4 -4 -4 -4 -3 -3 -2 -2 -3 -4 -4 -4 -3 -3 -2 -2 -2 -2 -1 -1 -1 -1 -1 -2 -2 -2